[[{"header":{"parameterUnit":"m.s-1","parameterCategory":1,"la1":30.2992,"la2":30.254,"lo1":-89.0895,"lo2":-89.0443,"dy":0.0025,"dx":0.0025,"nx":19,"ny":19,"refTime":"2026-04-08T03:00:00:Z","depth":0,"parameterNumber":2,"parameterNumberName":"U-component_of_WINDS"},"data":[0,0,0,-7.7854,-7.7858,-7.8028,-7.8028,-7.8298,-7.8301,0,0,0,0,0,0,0,0,0,0,0,-7.7838,-7.7841,-7.7854,-7.7859,-7.8027,-7.8028,-7.8298,-7.8301,0,0,0,0,0,0,0,0,0,0,0,-7.7836,-7.784,-7.7844,-7.786,-7.8027,-7.8028,-7.8297,-7.815,0,0,0,0,0,0,0,0,0,0,-7.7977,-7.7995,-7.7839,-7.7844,-7.7861,-7.8027,-7.8028,-7.8142,-7.8159,-7.8245,0,-7.8331,0,-7.8321,-7.8323,-7.8324,0,0,0,-7.7833,-7.7981,-7.7996,-7.7844,-7.7863,-7.8027,-7.7944,-7.8151,-7.8171,-7.8268,-7.8335,-7.8343,-7.8325,-7.8325,-7.8326,-7.8908,-7.8912,0,0,-7.7824,-7.7886,-7.7983,-7.801,-7.7988,-7.7939,-7.795,-7.8162,-7.8238,-7.8335,-7.8348,-7.833,-7.8327,-7.8329,-7.8904,-7.8909,0,0,0,-7.7814,-7.7881,-7.7889,-7.8001,-7.8027,-7.7945,-7.7957,-7.8228,-7.8226,-7.8351,-7.8333,-7.8329,-7.8333,-7.89,-7.8906,-7.9159,0,0,0,-7.7808,-7.7875,-7.7887,-7.7926,-7.8024,-7.813,-7.802,-7.8211,-7.8233,-7.8332,-7.8329,-7.8336,-7.8896,-7.8903,-7.9143,-7.9269,0,0,0,-7.7815,-7.7875,-7.7911,-7.7929,-7.8004,-7.8125,-7.8134,-7.8215,-7.8224,-7.8324,-7.8337,-7.8893,-7.8902,-7.9128,-7.9244,-7.944,0,0,0,-7.7841,-7.8134,-7.7917,-7.8237,-7.8003,-7.8281,-7.8132,-7.8336,-7.8452,-7.8331,-7.8896,-7.8906,-7.9124,-7.923,-7.9425,-7.9615,-7.97,0,0,-7.8246,-7.8185,-7.8369,-7.8179,-7.8511,-7.825,-7.8619,-7.8666,-7.8619,-7.8814,-7.8828,-7.9148,-7.9243,-7.9436,-8.0157,-8.0225,0,0,0,-7.8518,-7.8651,-7.8725,-7.8839,-7.8883,-7.893,-7.8914,-7.8932,-7.9094,-7.8732,-7.927,-7.9324,-7.9435,-7.9523,-7.9581,-7.9672,-7.8949,-7.8948,-7.8947,-7.918,-7.9103,-7.9402,-7.9347,-7.9459,-7.9439,-7.9523,-7.9543,-7.9433,-7.9561,-7.9619,-8.0065,-8.0171,-8.0214,-8.031,-7.9713,-7.9714,-7.9715,-7.9716,-7.9765,-7.9941,-7.9788,-8.0023,-7.994,-8.0136,-8.0129,-8.0045,-8.0215,-8.0016,-8.011,-7.9899,-8.0291,-8.0371,-7.9734,-7.9731,-7.9729,-7.9727,-7.9725,-8.019,-8.0261,-8.0277,-8.0433,-8.0562,-8.0495,-8.0665,-8.0584,-8.0508,-8.0601,-8.0653,-8.0648,-8.0633,-8.0632,-8.0633,-8.0635,-8.0636,-8.0637,-8.0638,-8.0624,-8.0634,-8.0788,-8.0859,-8.0921,-8.0992,-8.0976,-8.1034,-8.1078,-8.1005,-8.1005,-8.0883,-8.0344,-8.021,-8.0662,-8.0658,-8.0655,-8.0652,-8.0651,-8.1245,-8.1091,-8.133,-8.1392,-8.1468,-8.1601,-8.1495,-8.1621,-8.1658,-8.1745,-8.1602,-8.1217,-8.1149,-8.1103,-8.0991,-8.1618,-8.1618,-8.1618,-8.1618,-8.1603,-8.1561,-8.1785,-8.189,-8.1983,-8.1912,-8.2183,-8.2173,-8.2139,-8.2156,-8.2054,-8.1899,-8.1855,-8.1813,-8.1751,-8.1646,-8.2425,-8.2426,-8.2427,-8.1981,-8.1944,-8.219,-8.2154,-8.2208,-8.2256,-8.2508,-8.2634,-8.2563,-8.2458,-8.2169,-8.2135,-8.1884,-8.1806,-8.1695,-8.16,-8.1405,0,0]},{"header":{"parameterUnit":"m.s-1","parameterCategory":1,"la1":30.2992,"la2":30.254,"lo1":-89.0895,"lo2":-89.0443,"dy":0.0025,"dx":0.0025,"nx":19,"ny":19,"refTime":"2026-04-08T03:00:00:Z","depth":0,"parameterNumber":3,"parameterNumberName":"V-component_of_WINDS"},"data":[0,0,0,-1.1134,-1.1135,-1.1168,-1.1168,-1.1196,-1.1196,0,0,0,0,0,0,0,0,0,0,0,-1.1117,-1.1117,-1.1134,-1.1135,-1.1168,-1.1168,-1.1196,-1.1196,0,0,0,0,0,0,0,0,0,0,0,-1.1117,-1.1117,-1.1116,-1.1135,-1.1168,-1.1168,-1.1196,-1.1176,0,0,0,0,0,0,0,0,0,0,-1.1146,-1.1123,-1.1117,-1.1116,-1.1135,-1.1168,-1.1168,-1.1175,-1.1177,-1.1175,0,-1.1173,0,-1.1185,-1.1197,-1.1198,0,0,0,-1.114,-1.1121,-1.1137,-1.1116,-1.1135,-1.1168,-1.1155,-1.1176,-1.1179,-1.1178,-1.1173,-1.1175,-1.1185,-1.1198,-1.1198,-1.1169,-1.1169,0,0,-1.1138,-1.1118,-1.1135,-1.1138,-1.1134,-1.1153,-1.1155,-1.1178,-1.1171,-1.1173,-1.1176,-1.1186,-1.1198,-1.1198,-1.117,-1.1169,0,0,0,-1.1129,-1.1117,-1.1133,-1.1136,-1.1144,-1.1154,-1.1157,-1.117,-1.1177,-1.1176,-1.1186,-1.1198,-1.1198,-1.117,-1.117,-1.1131,0,0,0,-1.1128,-1.1112,-1.1131,-1.112,-1.1143,-1.1158,-1.1148,-1.1176,-1.1179,-1.1186,-1.1198,-1.1198,-1.1171,-1.117,-1.1133,-1.1115,0,0,0,-1.1117,-1.1111,-1.1113,-1.1119,-1.1133,-1.1158,-1.1166,-1.1177,-1.1185,-1.1198,-1.1198,-1.1171,-1.117,-1.1134,-1.1118,-1.11,0,0,0,-1.1099,-1.1079,-1.1112,-1.1093,-1.1132,-1.1134,-1.1166,-1.1169,-1.1175,-1.1198,-1.1171,-1.117,-1.1135,-1.112,-1.1102,-1.108,-1.107,0,0,-1.1063,-1.1074,-1.1064,-1.1095,-1.1086,-1.1131,-1.1116,-1.114,-1.1159,-1.1164,-1.1164,-1.1132,-1.1118,-1.11,-1.1022,-1.1013,0,0,0,-1.1046,-1.1039,-1.1041,-1.1046,-1.1064,-1.1077,-1.1106,-1.1115,-1.112,-1.1159,-1.1122,-1.1115,-1.1105,-1.1095,-1.1088,-1.108,-1.1165,-1.1165,-1.1165,-1.0966,-1.0991,-1.0976,-1.1004,-1.1009,-1.1038,-1.1043,-1.1059,-1.1084,-1.1074,-1.1076,-1.1025,-1.1013,-1.1008,-1.0999,-1.1068,-1.1068,-1.1068,-1.1067,-1.0914,-1.0906,-1.0938,-1.0935,-1.096,-1.0957,-1.0983,-1.1,-1.1,-1.1027,-1.102,-1.1045,-1.0998,-1.0991,-1.1065,-1.1065,-1.1066,-1.1066,-1.1066,-1.0863,-1.0863,-1.0874,-1.0882,-1.0885,-1.0914,-1.0912,-1.0936,-1.0958,-1.0951,-1.0953,-1.0954,-1.0956,-1.0951,-1.0951,-1.0951,-1.095,-1.095,-1.095,-1.0805,-1.0819,-1.0814,-1.0829,-1.0834,-1.0844,-1.0871,-1.0876,-1.0888,-1.0905,-1.0905,-1.0928,-1.099,-1.1003,-1.0947,-1.0948,-1.0948,-1.0949,-1.0949,-1.074,-1.0758,-1.0751,-1.0755,-1.0774,-1.0774,-1.0804,-1.0812,-1.082,-1.0817,-1.0842,-1.0884,-1.0897,-1.0903,-1.0914,-1.0838,-1.0838,-1.0838,-1.0838,-1.0695,-1.0704,-1.0701,-1.0706,-1.0714,-1.074,-1.0728,-1.0748,-1.0771,-1.0777,-1.0791,-1.0809,-1.0814,-1.0824,-1.0831,-1.0842,-1.075,-1.075,-1.075,-1.0655,-1.0666,-1.0652,-1.0675,-1.0691,-1.0703,-1.0691,-1.0695,-1.0725,-1.0747,-1.0781,-1.0785,-1.0813,-1.0822,-1.0843,-1.0854,-1.0875,0,0]}]]